CAPE
483 522 514 555 484 369 466 499 491 513 960 1530 1524 1211 968 514 779 210 224 615 409 281 112 151 1640 1879 1486 1730 1986 1557 1711 1578 1532
302 498 541 508 575 501 501 574 681 628 840 1510 1662 1126 1493 1523 848 249 43 531 909 990 555 316 264 878 1564 1409 1292 1691 1676 1437 1932
84 329 590 681 693 561 500 576 609 728 898 1550 1552 1335 1557 1509 1283 1041 691 1123 1569 943 929 829 667 683 786 1351 1354 1362 1925 1517 1681
103 544 512 632 733 864 629 516 581 676 850 1132 1295 1449 1490 1223 1303 931 953 1475 1510 1411 1296 1446 1234 1194 1079 1062 1223 1284 1979 1798 1731
0 35 324 491 631 863 974 964 708 625 659 763 1121 1267 1461 1339 1505 1041 1015 1210 1358 1719 1814 1754 1723 1708 1489 1301 916 1305 2055 1820 1398
0 16 174 439 556 728 900 1110 1133 811 649 638 762 1232 1200 1357 1402 1459 1051 1513 1454 1653 1940 2082 1684 1802 2018 1680 1139 1275 1973 2235 2001
0 4 87 172 374 542 817 1059 1425 1292 856 679 671 815 898 1103 1409 1424 1237 1392 1674 1725 2003 2181 2122 2164 2147 1985 1651 1261 1271 1756 2113
15 20 37 70 103 377 1153 1307 1652 1528 1082 968 784 926 853 1104 1516 1493 1475 1298 1709 1833 2103 2239 2393 2425 2322 2244 1799 1393 1278 1480 1796
99 54 3 0 138 443 735 1114 1877 1786 1516 1282 1023 1168 956 1007 1504 1648 1606 1523 1715 2006 2147 2310 2502 2449 2520 2330 1657 1116 843 1048 1184
18 2 9 34 79 241 547 998 1440 1665 1827 1524 1361 1496 1321 1257 1526 1699 1740 1729 1852 2059 2272 2497 2650 2614 2639 2628 2410 1240 829 517 778
34 65 72 82 115 129 272 565 968 1422 1728 1848 1810 1578 2096 1615 1860 2048 2093 2097 2104 2281 2467 2455 2601 2692 2732 2804 2710 1994 1088 698 842
37 165 289 315 299 269 232 264 431 919 1442 2162 1982 2308 1892 2247 2122 2264 2441 2397 2468 2582 2683 2710 2639 2877 2902 2916 2774 1931 1397 1049 1198
0 0 104 274 525 693 740 725 615 517 1095 1578 2226 2420 2348 2373 2377 2613 2749 2766 2736 2830 2958 2885 2474 2639 2990 3039 3081 2668 1619 1271 1629
0 0 0 0 273 1557 1690 1504 1056 810 834 1466 2067 2315 2446 2717 2655 2766 2969 3051 3123 3151 3093 2489 2920 2817 2895 2940 2777 3102 2112 1353 1913
0 0 0 0 7 846 2687 1931 1660 1743 1128 1775 1946 2175 2345 2643 2878 2676 2768 3092 3242 3279 3235 3044 3231 2993 3160 2750 3255 2798 2303 1828 1744
0 0 0 0 0 2 227 1604 1679 1936 1672 2277 2105 2274 2407 2579 2816 2970 2748 3088 3284 3102 3119 2657 2664 2762 2475 2284 2175 2660 2176 1613 1655
0 0 0 0 1 2 0 0 264 1210 2441 2287 2486 2468 2693 2688 2784 2895 2834 2863 3021 2810 2610 2740 2540 2550 2528 2196 1829 1549 2255 2154 1405
1 7 2 0 3 4 3 0 1 0 527 1907 2244 2592 2608 2721 2621 2619 2784 2745 2713 2613 2478 2283 2262 1762 1659 1597 2018 2268 2662 3005 3199
7 10 6 0 0 0 0 0 1 0 1 475 2179 2419 2580 2561 2565 2704 2618 2691 2325 1186 1676 1342 1396 1346 1841 2539 1875 2141 2088 2698 3040
10 0 0 1 1 0 0 0 0 0 0 8 1057 2493 2678 2732 2559 2737 2884 2790 2885 2748 1362 965 1371 1484 1584 1894 1719 1977 2079 1735 2066
CIN
-4 -12 -18 -37 -74 -96 -113 -93 -79 -67 -32 -16 -10 -20 -49 -87 -43 -49 -34 -2 -2 -2 -18 -5 -5 -13 -0 -0 -1 -0 -1 -1 -2
-4 -2 -12 -28 -69 -99 -119 -112 -105 -110 -68 -35 -18 -42 -13 -21 -58 -82 -127 -4 -9 -2 -2 -2 -9 -1 -1 -1 -2 -0 -3 -1 -2
-17 -102 -3 -6 -32 -91 -122 -136 -122 -93 -71 -40 -40 -30 -21 -23 -46 -55 -26 -4 -1 -4 -1 -4 -4 -10 -9 -0 -1 -1 -0 -0 -2
-8 -5 -4 -5 -3 -49 -104 -117 -108 -115 -88 -53 -52 -27 -24 -42 -41 -65 -57 -5 -5 -6 -4 -1 -9 -8 -27 -20 -7 -0 -1 -1 -2
-0 -7 -8 -7 -5 -19 -44 -70 -109 -131 -160 -136 -117 -86 -31 -37 -23 -65 -66 -42 -21 -9 -10 -11 -1 -14 -26 -37 -51 -13 -1 -1 -0
-0 -2 -5 -6 -6 -2 -42 -52 -73 -119 -148 -153 -149 -101 -81 -36 -27 -37 -67 -39 -44 -27 -18 -19 -22 -17 -13 -32 -55 -32 -1 -0 -0
-0 -3 -4 -6 -5 -4 -26 -44 -76 -114 -137 -148 -143 -138 -118 -100 -80 -69 -72 -48 -51 -35 -31 -29 -31 -21 -21 -23 -39 -54 -42 -6 -0
-4 -13 -16 -5 -4 -4 -5 -29 -51 -90 -106 -108 -125 -132 -136 -136 -106 -89 -63 -68 -45 -44 -29 -39 -36 -30 -26 -24 -34 -48 -73 -46 -17
-15 -29 -25 -0 -5 -5 -3 -28 -48 -85 -104 -110 -120 -119 -161 -137 -114 -96 -94 -84 -54 -42 -38 -37 -41 -38 -36 -35 -53 -88 -129 -108 -80
-7 -35 -21 -57 -67 -18 -4 -30 -53 -79 -108 -96 -91 -91 -135 -129 -135 -132 -116 -104 -72 -56 -42 -32 -35 -43 -39 -37 -48 -93 -144 -178 -106
-95 -102 -115 -129 -140 -135 -114 -54 -23 -65 -61 -112 -103 -123 -61 -119 -111 -121 -98 -77 -83 -69 -54 -50 -44 -46 -49 -41 -50 -92 -140 -173 -129
-147 -127 -135 -146 -149 -168 -194 -192 -120 -49 -79 -99 -119 -99 -142 -118 -128 -115 -86 -79 -69 -57 -52 -50 -56 -51 -49 -47 -62 -113 -161 -178 -125
-0 -0 -212 -188 -182 -190 -199 -220 -206 -156 -112 -132 -158 -155 -184 -127 -103 -74 -76 -74 -74 -72 -60 -64 -69 -58 -45 -57 -59 -101 -179 -205 -114
-0 -0 -0 -0 -338 -101 -129 -153 -200 -203 -146 -149 -186 -140 -101 -98 -102 -78 -60 -40 -38 -54 -67 -66 -60 -42 -50 -63 -93 -77 -184 -271 -161
-0 -0 -0 -0 -125 -240 -38 -64 -130 -163 -221 -128 -136 -146 -132 -123 -104 -93 -62 -44 -45 -46 -46 -54 -35 -64 -38 -53 -50 -102 -179 -258 -279
-0 -0 -0 -0 -0 -62 -540 -237 -87 -128 -200 -71 -129 -149 -141 -122 -108 -85 -69 -61 -44 -55 -50 -69 -73 -49 -68 -65 -70 -90 -176 -323 -352
-0 -0 -1 -1 -0 -0 -0 -0 -583 -351 -28 -72 -84 -115 -98 -107 -107 -94 -71 -68 -48 -60 -63 -64 -44 -59 -52 -70 -101 -116 -102 -230 -438
-0 -0 -0 -0 -0 -0 -0 -0 -0 -0 -552 -169 -91 -72 -90 -81 -94 -107 -92 -65 -67 -94 -65 -58 -74 -92 -104 -99 -68 -70 -61 -47 -150
-0 -0 -0 -0 -0 -0 -0 -0 -0 -0 -69 -508 -108 -69 -62 -72 -79 -77 -92 -51 -122 -340 -190 -246 -239 -275 -186 -79 -182 -163 -150 -86 -102
-0 -0 -0 -0 -0 -0 -0 -0 -0 -0 -0 -434 -237 -24 -7 -10 -27 -23 -39 -39 -71 -104 -334 -432 -338 -285 -269 -251 -350 -324 -288 -334 -261
Wind_Speed
19 18 17 18 22 23 23 24 22 20 19 18 19 19 17 21 22 40 39 35 33 33 30 29 5 12 25 23 16 19 16 18 20
27 21 18 17 19 22 21 22 22 21 20 20 20 20 22 19 17 39 21 37 38 33 33 29 25 13 19 23 20 19 16 20 18
18 26 16 17 17 21 22 23 21 19 19 21 21 22 23 22 19 20 42 21 29 38 34 32 26 9 26 20 21 20 17 18 17
30 20 17 17 16 18 19 19 21 21 18 22 22 22 22 21 20 19 19 34 17 39 35 32 33 31 26 23 21 20 15 19 18
30 29 20 17 16 16 17 20 22 23 22 19 21 22 23 22 22 21 20 20 22 20 33 35 32 33 34 16 17 14 11 13 14
36 32 24 21 18 16 16 19 20 23 24 23 19 22 22 23 23 21 20 19 18 16 18 25 29 15 32 6 13 10 9 9 9
35 32 36 26 21 18 16 17 18 21 23 23 19 19 21 23 22 22 21 21 19 17 16 19 17 16 11 9 12 10 9 7 6
26 26 29 34 33 22 19 18 17 18 19 18 20 19 20 20 21 22 22 22 20 18 17 16 16 14 11 11 14 12 9 7 6
23 25 25 27 27 27 21 20 18 17 19 20 21 19 19 19 20 21 22 21 21 19 18 17 16 15 13 14 16 15 12 11 13
26 28 28 26 28 28 27 22 20 17 18 18 19 20 20 19 19 20 21 22 22 21 20 19 17 17 15 15 17 16 14 17 19
30 29 31 32 31 31 31 31 24 19 18 20 20 21 20 21 20 20 20 21 22 22 21 20 18 18 17 15 17 19 19 18 21
29 30 33 34 33 33 33 33 33 23 20 18 22 20 22 20 20 20 20 20 21 22 23 21 18 19 18 16 18 19 21 19 24
29 30 30 33 34 35 36 34 34 33 20 19 23 27 24 20 20 19 19 19 20 21 23 21 20 19 18 16 16 17 21 24 27
29 31 31 31 33 35 37 36 34 33 36 21 20 19 19 20 19 20 19 18 19 20 21 22 21 20 21 16 16 17 25 29 29
31 31 31 30 30 31 31 36 35 35 39 32 21 19 19 20 19 19 20 19 18 18 19 21 23 21 23 20 21 17 20 30 31
30 29 28 28 28 29 27 27 31 34 36 33 23 21 19 20 19 18 19 19 19 19 19 19 21 21 23 26 22 32 30 28 31
28 26 26 25 26 26 26 25 25 24 25 26 25 23 20 20 19 18 17 17 19 20 19 19 19 20 21 25 30 32 24 15 20
25 24 23 22 23 24 24 24 25 25 26 29 28 27 23 21 19 19 17 14 17 20 20 19 20 19 22 24 26 29 29 25 19
23 21 21 20 21 22 23 23 24 24 26 28 34 29 26 24 20 18 17 15 14 20 20 21 21 21 22 21 20 22 24 19 18
21 20 19 20 21 21 20 21 22 23 24 26 28 30 32 27 25 20 19 16 15 20 23 22 24 24 23 24 21 21 21 19 20
Wind_Direction
203 199 194 190 180 179 179 180 184 200 202 206 207 200 201 187 185 208 214 222 214 211 213 213 312 137 188 188 139 162 139 152 170
241 195 202 198 189 183 183 182 185 192 213 215 212 202 231 225 203 192 178 219 212 226 221 230 244 258 165 183 172 164 146 182 155
226 185 210 210 201 188 187 186 187 190 214 220 223 227 230 232 225 195 224 247 245 216 229 233 246 255 192 174 176 174 161 165 156
249 244 227 221 212 196 192 190 189 189 200 229 226 227 226 226 223 220 216 241 244 232 236 241 238 237 216 186 180 178 161 178 182
247 249 241 228 226 210 200 193 190 189 192 203 223 226 227 224 230 229 225 204 193 252 246 242 246 239 225 174 175 167 160 164 167
245 245 242 242 239 226 211 196 193 190 189 193 212 227 223 227 225 223 219 216 215 230 249 256 254 263 234 200 175 173 172 171 171
244 244 245 242 237 235 226 210 201 190 188 190 203 222 223 225 219 213 219 230 223 221 230 250 255 260 257 201 184 183 185 187 188
249 254 253 243 248 243 235 233 217 204 199 199 196 224 224 219 220 224 231 228 226 226 230 232 244 247 225 206 191 192 201 204 204
259 255 255 252 248 248 244 240 229 215 205 202 201 211 211 223 226 226 224 225 223 224 227 231 236 237 226 207 198 199 202 198 193
260 255 256 255 257 254 249 245 242 223 204 207 214 224 221 227 223 224 225 226 229 225 228 236 233 242 239 215 206 204 205 198 196
259 262 259 257 257 256 255 253 249 242 228 206 203 203 229 223 223 218 226 229 227 232 236 231 234 244 242 224 211 206 204 201 200
260 264 261 259 259 258 258 255 253 248 238 219 205 204 205 212 213 218 222 223 227 236 241 242 233 246 245 222 212 206 204 201 201
262 266 267 262 263 261 258 254 253 252 237 225 200 198 200 216 218 224 218 220 227 238 244 243 243 246 248 227 218 211 203 199 200
266 268 270 270 268 263 258 254 251 249 248 223 207 218 222 223 221 224 230 233 237 239 241 247 247 251 254 241 219 213 201 200 199
270 269 270 273 269 268 265 258 250 248 246 249 240 232 220 213 219 226 234 234 232 232 238 244 251 251 257 257 261 211 204 198 198
266 270 272 273 272 267 268 269 256 248 249 247 238 237 233 228 219 220 236 232 235 232 236 240 246 251 255 260 261 255 199 197 199
264 271 273 276 273 269 266 268 265 261 248 240 239 240 241 233 224 217 221 232 235 236 234 237 245 246 254 257 256 253 259 242 204
265 271 276 278 276 273 269 271 267 266 262 251 242 242 241 235 227 216 210 218 231 234 241 242 242 248 251 254 256 257 259 263 265
266 273 275 280 281 279 275 275 272 273 267 259 247 243 240 235 227 220 210 208 231 247 247 249 251 254 256 260 266 269 264 261 267
267 275 279 281 281 282 280 279 275 275 271 266 256 244 244 238 234 226 224 219 222 238 249 253 252 253 256 256 265 273 272 275 274